Year,Month,Day,Hour,Minute,Value (Times are PST for insolation in W/m^2)
2016,09,29,00,00,0.00
2016,09,29,00,01,0.00
2016,09,29,00,02,0.00
2016,09,29,00,03,0.00
2016,09,29,00,04,0.00
2016,09,29,00,05,0.00
2016,09,29,00,06,0.00
2016,09,29,00,07,0.00
2016,09,29,00,08,0.00
2016,09,29,00,09,0.00
2016,09,29,00,10,0.00
2016,09,29,00,11,0.00
2016,09,29,00,12,0.00
2016,09,29,00,13,0.00
2016,09,29,00,14,0.00
2016,09,29,00,15,0.00
2016,09,29,00,16,0.00
2016,09,29,00,17,0.00
2016,09,29,00,18,0.00
2016,09,29,00,19,0.00
2016,09,29,00,20,0.00
2016,09,29,00,21,0.00
2016,09,29,00,22,0.00
2016,09,29,00,23,0.00
2016,09,29,00,24,0.00
2016,09,29,00,25,0.00
2016,09,29,00,26,0.00
2016,09,29,00,27,0.00
2016,09,29,00,28,0.00
2016,09,29,00,29,0.00
2016,09,29,00,30,0.00
2016,09,29,00,31,0.00
2016,09,29,00,32,0.00
2016,09,29,00,33,0.00
2016,09,29,00,34,0.00
2016,09,29,00,35,0.00
2016,09,29,00,36,0.00
2016,09,29,00,37,0.00
2016,09,29,00,38,0.00
2016,09,29,00,39,0.00
2016,09,29,00,40,0.00
2016,09,29,00,41,0.00
2016,09,29,00,42,0.00
2016,09,29,00,43,0.00
2016,09,29,00,44,0.00
2016,09,29,00,45,0.00
2016,09,29,00,46,0.00
2016,09,29,00,47,0.00
2016,09,29,00,48,0.00
2016,09,29,00,49,0.00
2016,09,29,00,50,0.00
2016,09,29,00,51,0.00
2016,09,29,00,52,0.00
2016,09,29,00,53,0.00
2016,09,29,00,54,0.00
2016,09,29,00,55,0.00
2016,09,29,00,56,0.00
2016,09,29,00,57,0.00
2016,09,29,00,58,0.00
2016,09,29,00,59,0.00
2016,09,29,01,00,0.00
2016,09,29,01,01,0.00
2016,09,29,01,02,0.00
2016,09,29,01,03,0.00
2016,09,29,01,04,0.00
2016,09,29,01,05,0.00
2016,09,29,01,06,0.00
2016,09,29,01,07,0.00
2016,09,29,01,08,0.00
2016,09,29,01,09,0.00
2016,09,29,01,10,0.00
2016,09,29,01,11,0.00
2016,09,29,01,12,0.00
2016,09,29,01,13,0.00
2016,09,29,01,14,0.00
2016,09,29,01,15,0.00
2016,09,29,01,16,0.00
2016,09,29,01,17,0.00
2016,09,29,01,18,0.00
2016,09,29,01,19,0.00
2016,09,29,01,20,0.00
2016,09,29,01,21,0.00
2016,09,29,01,22,0.00
2016,09,29,01,23,0.00
2016,09,29,01,24,0.00
2016,09,29,01,25,0.00
2016,09,29,01,26,0.00
2016,09,29,01,27,0.00
2016,09,29,01,28,0.00
2016,09,29,01,29,0.00
2016,09,29,01,30,0.00
2016,09,29,01,31,0.00
2016,09,29,01,32,0.00
2016,09,29,01,33,0.00
2016,09,29,01,34,0.00
2016,09,29,01,35,0.00
2016,09,29,01,36,0.00
2016,09,29,01,37,0.00
2016,09,29,01,38,0.00
2016,09,29,01,39,0.00
2016,09,29,01,40,0.00
2016,09,29,01,41,0.00
2016,09,29,01,42,0.00
2016,09,29,01,43,0.00
2016,09,29,01,44,0.00
2016,09,29,01,45,0.00
2016,09,29,01,46,0.00
2016,09,29,01,47,0.00
2016,09,29,01,48,0.00
2016,09,29,01,49,0.00
2016,09,29,01,50,0.00
2016,09,29,01,51,0.00
2016,09,29,01,52,0.00
2016,09,29,01,53,0.00
2016,09,29,01,54,0.00
2016,09,29,01,55,0.00
2016,09,29,01,56,0.00
2016,09,29,01,57,0.00
2016,09,29,01,58,0.00
2016,09,29,01,59,0.00
2016,09,29,02,00,0.00
2016,09,29,02,01,0.00
2016,09,29,02,02,0.00
2016,09,29,02,03,0.00
2016,09,29,02,04,0.00
2016,09,29,02,05,0.00
2016,09,29,02,06,0.00
2016,09,29,02,07,0.00
2016,09,29,02,08,0.00
2016,09,29,02,09,0.00
2016,09,29,02,10,0.00
2016,09,29,02,11,0.00
2016,09,29,02,12,0.00
2016,09,29,02,13,0.00
2016,09,29,02,14,0.00
2016,09,29,02,15,0.00
2016,09,29,02,16,0.00
2016,09,29,02,17,0.00
2016,09,29,02,18,0.00
2016,09,29,02,19,0.00
2016,09,29,02,20,0.00
2016,09,29,02,21,0.00
2016,09,29,02,22,0.00
2016,09,29,02,23,0.00
2016,09,29,02,24,0.00
2016,09,29,02,25,0.00
2016,09,29,02,26,0.00
2016,09,29,02,27,0.00
2016,09,29,02,28,0.00
2016,09,29,02,29,0.00
2016,09,29,02,30,0.00
2016,09,29,02,31,0.00
2016,09,29,02,32,0.00
2016,09,29,02,33,0.00
2016,09,29,02,34,0.00
2016,09,29,02,35,0.00
2016,09,29,02,36,0.00
2016,09,29,02,37,0.00
2016,09,29,02,38,0.00
2016,09,29,02,39,0.00
2016,09,29,02,40,0.00
2016,09,29,02,41,0.00
2016,09,29,02,42,0.00
2016,09,29,02,43,0.00
2016,09,29,02,44,0.00
2016,09,29,02,45,0.00
2016,09,29,02,46,0.00
2016,09,29,02,47,0.00
2016,09,29,02,48,0.00
2016,09,29,02,49,0.00
2016,09,29,02,50,0.00
2016,09,29,02,51,0.00
2016,09,29,02,52,0.00
2016,09,29,02,53,0.00
2016,09,29,02,54,0.00
2016,09,29,02,55,0.00
2016,09,29,02,56,0.00
2016,09,29,02,57,0.00
2016,09,29,02,58,0.00
2016,09,29,02,59,0.00
2016,09,29,03,00,0.00
2016,09,29,03,01,0.00
2016,09,29,03,02,0.00
2016,09,29,03,03,0.00
2016,09,29,03,04,0.00
2016,09,29,03,05,0.00
2016,09,29,03,06,0.00
2016,09,29,03,07,0.00
2016,09,29,03,08,0.00
2016,09,29,03,09,0.00
2016,09,29,03,10,0.00
2016,09,29,03,11,0.00
2016,09,29,03,12,0.00
2016,09,29,03,13,0.00
2016,09,29,03,14,0.00
2016,09,29,03,15,0.00
2016,09,29,03,16,0.00
2016,09,29,03,17,0.00
2016,09,29,03,18,0.00
2016,09,29,03,19,0.00
2016,09,29,03,20,0.00
2016,09,29,03,21,0.00
2016,09,29,03,22,0.00
2016,09,29,03,23,0.00
2016,09,29,03,24,0.00
2016,09,29,03,25,0.00
2016,09,29,03,26,0.00
2016,09,29,03,27,0.00
2016,09,29,03,28,0.00
2016,09,29,03,29,0.00
2016,09,29,03,30,0.00
2016,09,29,03,31,0.00
2016,09,29,03,32,0.00
2016,09,29,03,33,0.00
2016,09,29,03,34,0.00
2016,09,29,03,35,0.00
2016,09,29,03,36,0.00
2016,09,29,03,37,0.00
2016,09,29,03,38,0.00
2016,09,29,03,39,0.00
2016,09,29,03,40,0.00
2016,09,29,03,41,0.00
2016,09,29,03,42,0.00
2016,09,29,03,43,0.00
2016,09,29,03,44,0.00
2016,09,29,03,45,0.00
2016,09,29,03,46,0.00
2016,09,29,03,47,0.00
2016,09,29,03,48,0.00
2016,09,29,03,49,0.00
2016,09,29,03,50,0.00
2016,09,29,03,51,0.00
2016,09,29,03,52,0.00
2016,09,29,03,53,0.00
2016,09,29,03,54,0.00
2016,09,29,03,55,0.00
2016,09,29,03,56,0.00
2016,09,29,03,57,0.00
2016,09,29,03,58,0.00
2016,09,29,03,59,0.00
2016,09,29,04,00,0.00
2016,09,29,04,01,0.00
2016,09,29,04,02,0.00
2016,09,29,04,03,0.00
2016,09,29,04,04,0.00
2016,09,29,04,05,0.00
2016,09,29,04,06,0.00
2016,09,29,04,07,0.00
2016,09,29,04,08,0.00
2016,09,29,04,09,0.00
2016,09,29,04,10,0.00
2016,09,29,04,11,0.00
2016,09,29,04,12,0.00
2016,09,29,04,13,0.00
2016,09,29,04,14,0.00
2016,09,29,04,15,0.00
2016,09,29,04,16,0.00
2016,09,29,04,17,0.00
2016,09,29,04,18,0.00
2016,09,29,04,19,0.00
2016,09,29,04,20,0.00
2016,09,29,04,21,0.00
2016,09,29,04,22,0.00
2016,09,29,04,23,0.00
2016,09,29,04,24,0.00
2016,09,29,04,25,0.00
2016,09,29,04,26,0.00
2016,09,29,04,27,0.00
2016,09,29,04,28,0.00
2016,09,29,04,29,0.00
2016,09,29,04,30,0.00
2016,09,29,04,31,0.00
2016,09,29,04,32,0.00
2016,09,29,04,33,0.00
2016,09,29,04,34,0.00
2016,09,29,04,35,0.00
2016,09,29,04,36,0.00
2016,09,29,04,37,0.00
2016,09,29,04,38,0.00
2016,09,29,04,39,0.00
2016,09,29,04,40,0.00
2016,09,29,04,41,0.00
2016,09,29,04,42,0.00
2016,09,29,04,43,0.00
2016,09,29,04,44,0.00
2016,09,29,04,45,0.00
2016,09,29,04,46,0.00
2016,09,29,04,47,0.00
2016,09,29,04,48,0.00
2016,09,29,04,49,0.00
2016,09,29,04,50,0.00
2016,09,29,04,51,0.00
2016,09,29,04,52,0.00
2016,09,29,04,53,0.00
2016,09,29,04,54,0.00
2016,09,29,04,55,0.00
2016,09,29,04,56,0.00
2016,09,29,04,57,0.00
2016,09,29,04,58,0.00
2016,09,29,04,59,0.00
2016,09,29,05,00,0.00
2016,09,29,05,01,0.00
2016,09,29,05,02,0.00
2016,09,29,05,03,0.00
2016,09,29,05,04,0.00
2016,09,29,05,05,0.00
2016,09,29,05,06,0.00
2016,09,29,05,07,0.00
2016,09,29,05,08,0.00
2016,09,29,05,09,0.00
2016,09,29,05,10,0.00
2016,09,29,05,11,0.00
2016,09,29,05,12,0.00
2016,09,29,05,13,0.00
2016,09,29,05,14,0.00
2016,09,29,05,15,0.00
2016,09,29,05,16,0.00
2016,09,29,05,17,0.00
2016,09,29,05,18,0.00
2016,09,29,05,19,0.00
2016,09,29,05,20,0.00
2016,09,29,05,21,0.00
2016,09,29,05,22,0.00
2016,09,29,05,23,0.00
2016,09,29,05,24,0.00
2016,09,29,05,25,0.00
2016,09,29,05,26,0.00
2016,09,29,05,27,0.00
2016,09,29,05,28,0.00
2016,09,29,05,29,0.00
2016,09,29,05,30,0.00
2016,09,29,05,31,0.00
2016,09,29,05,32,0.00
2016,09,29,05,33,0.00
2016,09,29,05,34,0.00
2016,09,29,05,35,0.00
2016,09,29,05,36,0.00
2016,09,29,05,37,0.00
2016,09,29,05,38,0.00
2016,09,29,05,39,0.00
2016,09,29,05,40,0.00
2016,09,29,05,41,0.00
2016,09,29,05,42,0.00
2016,09,29,05,43,0.00
2016,09,29,05,44,0.00
2016,09,29,05,45,0.00
2016,09,29,05,46,0.00
2016,09,29,05,47,0.00
2016,09,29,05,48,0.00
2016,09,29,05,49,0.00
2016,09,29,05,50,0.00
2016,09,29,05,51,0.00
2016,09,29,05,52,0.00
2016,09,29,05,53,0.00
2016,09,29,05,54,0.00
2016,09,29,05,55,0.00
2016,09,29,05,56,0.00
2016,09,29,05,57,0.00
2016,09,29,05,58,0.00
2016,09,29,05,59,0.00
2016,09,29,06,00,0.00
2016,09,29,06,01,0.00
2016,09,29,06,02,0.00
2016,09,29,06,03,0.00
2016,09,29,06,04,0.00
2016,09,29,06,05,0.00
2016,09,29,06,06,0.00
2016,09,29,06,07,0.00
2016,09,29,06,08,0.00
2016,09,29,06,09,0.00
2016,09,29,06,10,0.00
2016,09,29,06,11,0.00
2016,09,29,06,12,0.00
2016,09,29,06,13,0.00
2016,09,29,06,14,0.00
2016,09,29,06,15,0.00
2016,09,29,06,16,0.00
2016,09,29,06,17,0.00
2016,09,29,06,18,0.00
2016,09,29,06,19,0.00
2016,09,29,06,20,0.00
2016,09,29,06,21,0.00
2016,09,29,06,22,0.00
2016,09,29,06,23,0.00
2016,09,29,06,24,0.00
2016,09,29,06,25,0.00
2016,09,29,06,26,0.00
2016,09,29,06,27,0.00
2016,09,29,06,28,0.00
2016,09,29,06,29,0.00
2016,09,29,06,30,0.00
2016,09,29,06,31,0.00
2016,09,29,06,32,0.00
2016,09,29,06,33,0.00
2016,09,29,06,34,0.00
2016,09,29,06,35,0.00
2016,09,29,06,36,0.00
2016,09,29,06,37,0.00
2016,09,29,06,38,0.00
2016,09,29,06,39,0.00
2016,09,29,06,40,0.00
2016,09,29,06,41,0.00
2016,09,29,06,42,0.00
2016,09,29,06,43,0.00
2016,09,29,06,44,0.00
2016,09,29,06,45,0.00
2016,09,29,06,46,0.00
2016,09,29,06,47,0.00
2016,09,29,06,48,0.00
2016,09,29,06,49,0.00
2016,09,29,06,50,0.00
2016,09,29,06,51,0.00
2016,09,29,06,52,0.00
2016,09,29,06,53,0.00
2016,09,29,06,54,0.00
2016,09,29,06,55,0.00
2016,09,29,06,56,0.00
2016,09,29,06,57,0.00
2016,09,29,06,58,0.00
2016,09,29,06,59,0.00
2016,09,29,07,00,0.00
2016,09,29,07,01,0.00
2016,09,29,07,02,0.00
2016,09,29,07,03,0.00
2016,09,29,07,04,0.00
2016,09,29,07,05,0.00
2016,09,29,07,06,0.00
2016,09,29,07,07,0.00
2016,09,29,07,08,0.00
2016,09,29,07,09,0.00
2016,09,29,07,10,0.00
2016,09,29,07,11,0.00
2016,09,29,07,12,0.00
2016,09,29,07,13,0.00
2016,09,29,07,14,0.00
2016,09,29,07,15,0.00
2016,09,29,07,16,0.00
2016,09,29,07,17,0.00
2016,09,29,07,18,0.00
2016,09,29,07,19,0.00
2016,09,29,07,20,0.00
2016,09,29,07,21,0.00
2016,09,29,07,22,0.00
2016,09,29,07,23,0.00
2016,09,29,07,24,0.00
2016,09,29,07,25,5.00
2016,09,29,07,26,5.00
2016,09,29,07,27,5.00
2016,09,29,07,28,5.00
2016,09,29,07,29,5.00
2016,09,29,07,30,6.00
2016,09,29,07,31,7.00
2016,09,29,07,32,7.00
2016,09,29,07,33,8.50
2016,09,29,07,34,9.00
2016,09,29,07,35,9.00
2016,09,29,07,36,9.00
2016,09,29,07,37,9.30
2016,09,29,07,38,11.00
2016,09,29,07,39,11.00
2016,09,29,07,40,11.40
2016,09,29,07,41,13.00
2016,09,29,07,42,14.00
2016,09,29,07,43,15.30
2016,09,29,07,44,17.50
2016,09,29,07,45,18.80
2016,09,29,07,46,20.80
2016,09,29,07,47,21.10
2016,09,29,07,48,23.00
2016,09,29,07,49,23.40
2016,09,29,07,50,25.00
2016,09,29,07,51,25.40
2016,09,29,07,52,26.00
2016,09,29,07,53,26.00
2016,09,29,07,54,27.30
2016,09,29,07,55,28.00
2016,09,29,07,56,29.60
2016,09,29,07,57,30.00
2016,09,29,07,58,28.00
2016,09,29,07,59,28.00
2016,09,29,08,00,28.00
2016,09,29,08,01,28.00
2016,09,29,08,02,28.80
2016,09,29,08,03,30.00
2016,09,29,08,04,30.00
2016,09,29,08,05,30.00
2016,09,29,08,06,30.00
2016,09,29,08,07,30.00
2016,09,29,08,08,28.20
2016,09,29,08,09,28.00
2016,09,29,08,10,28.30
2016,09,29,08,11,30.00
2016,09,29,08,12,30.00
2016,09,29,08,13,30.00
2016,09,29,08,14,31.00
2016,09,29,08,15,32.00
2016,09,29,08,16,32.00
2016,09,29,08,17,32.00
2016,09,29,08,18,32.80
2016,09,29,08,19,34.90
2016,09,29,08,20,37.10
2016,09,29,08,21,39.40
2016,09,29,08,22,43.10
2016,09,29,08,23,49.30
2016,09,29,08,24,54.80
2016,09,29,08,25,69.00
2016,09,29,08,26,87.70
2016,09,29,08,27,91.00
2016,09,29,08,28,91.00
2016,09,29,08,29,91.00
2016,09,29,08,30,86.60
2016,09,29,08,31,58.20
2016,09,29,08,32,48.60
2016,09,29,08,33,57.10
2016,09,29,08,34,53.70
2016,09,29,08,35,58.70
2016,09,29,08,36,69.40
2016,09,29,08,37,91.40
2016,09,29,08,38,111.40
2016,09,29,08,39,115.50
2016,09,29,08,40,113.60
2016,09,29,08,41,113.00
2016,09,29,08,42,120.80
2016,09,29,08,43,122.70
2016,09,29,08,44,123.00
2016,09,29,08,45,130.60
2016,09,29,08,46,134.00
2016,09,29,08,47,138.00
2016,09,29,08,48,140.10
2016,09,29,08,49,142.90
2016,09,29,08,50,145.50
2016,09,29,08,51,147.60
2016,09,29,08,52,152.40
2016,09,29,08,53,155.00
2016,09,29,08,54,156.30
2016,09,29,08,55,158.00
2016,09,29,08,56,159.30
2016,09,29,08,57,162.40
2016,09,29,08,58,164.00
2016,09,29,08,59,163.20
2016,09,29,09,00,162.70
2016,09,29,09,01,168.90
2016,09,29,09,02,171.80
2016,09,29,09,03,172.00
2016,09,29,09,04,153.10
2016,09,29,09,05,156.30
2016,09,29,09,06,162.40
2016,09,29,09,07,170.60
2016,09,29,09,08,149.70
2016,09,29,09,09,132.40
2016,09,29,09,10,145.00
2016,09,29,09,11,159.30
2016,09,29,09,12,167.10
2016,09,29,09,13,180.80
2016,09,29,09,14,145.70
2016,09,29,09,15,176.10
2016,09,29,09,16,170.10
2016,09,29,09,17,163.00
2016,09,29,09,18,153.90
2016,09,29,09,19,160.00
2016,09,29,09,20,177.40
2016,09,29,09,21,164.60
2016,09,29,09,22,170.60
2016,09,29,09,23,190.90
2016,09,29,09,24,179.50
2016,09,29,09,25,211.60
2016,09,29,09,26,224.00
2016,09,29,09,27,213.50
2016,09,29,09,28,206.80
2016,09,29,09,29,236.70
2016,09,29,09,30,240.60
2016,09,29,09,31,235.60
2016,09,29,09,32,231.80
2016,09,29,09,33,238.20
2016,09,29,09,34,241.50
2016,09,29,09,35,248.30
2016,09,29,09,36,254.40
2016,09,29,09,37,257.00
2016,09,29,09,38,260.30
2016,09,29,09,39,262.00
2016,09,29,09,40,262.60
2016,09,29,09,41,262.40
2016,09,29,09,42,262.40
2016,09,29,09,43,259.40
2016,09,29,09,44,256.30
2016,09,29,09,45,262.20
2016,09,29,09,46,262.40
2016,09,29,09,47,262.00
2016,09,29,09,48,275.70
2016,09,29,09,49,279.30
2016,09,29,09,50,282.30
2016,09,29,09,51,289.10
2016,09,29,09,52,296.00
2016,09,29,09,53,278.80
2016,09,29,09,54,245.30
2016,09,29,09,55,277.60
2016,09,29,09,56,307.20
2016,09,29,09,57,309.00
2016,09,29,09,58,300.10
2016,09,29,09,59,294.70
2016,09,29,10,00,300.40
2016,09,29,10,01,290.30
2016,09,29,10,02,274.40
2016,09,29,10,03,298.90
2016,09,29,10,04,312.40
2016,09,29,10,05,317.10
2016,09,29,10,06,325.60
2016,09,29,10,07,327.80
2016,09,29,10,08,321.30
2016,09,29,10,09,328.90
2016,09,29,10,10,322.20
2016,09,29,10,11,345.00
2016,09,29,10,12,346.10
2016,09,29,10,13,349.40
2016,09,29,10,14,350.00
2016,09,29,10,15,353.00
2016,09,29,10,16,350.20
2016,09,29,10,17,307.10
2016,09,29,10,18,326.00
2016,09,29,10,19,354.00
2016,09,29,10,20,359.70
2016,09,29,10,21,351.80
2016,09,29,10,22,369.60
2016,09,29,10,23,373.30
2016,09,29,10,24,374.60
2016,09,29,10,25,377.50
2016,09,29,10,26,380.50
2016,09,29,10,27,381.00
2016,09,29,10,28,385.70
2016,09,29,10,29,388.00
2016,09,29,10,30,371.00
2016,09,29,10,31,383.00
2016,09,29,10,32,374.10
2016,09,29,10,33,390.00
2016,09,29,10,34,390.00
2016,09,29,10,35,394.70
2016,09,29,10,36,396.70
2016,09,29,10,37,338.10
2016,09,29,10,38,324.20
2016,09,29,10,39,319.10
2016,09,29,10,40,304.50
2016,09,29,10,41,359.00
2016,09,29,10,42,379.00
2016,09,29,10,43,378.00
2016,09,29,10,44,336.00
2016,09,29,10,45,390.40
2016,09,29,10,46,378.80
2016,09,29,10,47,339.90
2016,09,29,10,48,299.00
2016,09,29,10,49,348.40
2016,09,29,10,50,367.20
2016,09,29,10,51,309.30
2016,09,29,10,52,290.00
2016,09,29,10,53,458.90
2016,09,29,10,54,488.70
2016,09,29,10,55,490.00
2016,09,29,10,56,495.60
2016,09,29,10,57,495.50
2016,09,29,10,58,500.90
2016,09,29,10,59,509.30
2016,09,29,11,00,513.90
2016,09,29,11,01,517.40
2016,09,29,11,02,530.40
2016,09,29,11,03,529.90
2016,09,29,11,04,529.00
2016,09,29,11,05,363.40
2016,09,29,11,06,375.20
2016,09,29,11,07,480.00
2016,09,29,11,08,408.00
2016,09,29,11,09,248.10
2016,09,29,11,10,225.00
2016,09,29,11,11,322.80
2016,09,29,11,12,414.20
2016,09,29,11,13,397.40
2016,09,29,11,14,385.00
2016,09,29,11,15,419.70
2016,09,29,11,16,467.30
2016,09,29,11,17,390.00
2016,09,29,11,18,366.40
2016,09,29,11,19,439.10
2016,09,29,11,20,457.50
2016,09,29,11,21,443.10
2016,09,29,11,22,455.00
2016,09,29,11,23,361.20
2016,09,29,11,24,334.60
2016,09,29,11,25,311.90
2016,09,29,11,26,276.40
2016,09,29,11,27,267.20
2016,09,29,11,28,225.70
2016,09,29,11,29,267.00
2016,09,29,11,30,300.00
2016,09,29,11,31,306.00
2016,09,29,11,32,374.40
2016,09,29,11,33,426.10
2016,09,29,11,34,411.00
2016,09,29,11,35,324.30
2016,09,29,11,36,283.40
2016,09,29,11,37,305.90
2016,09,29,11,38,257.00
2016,09,29,11,39,264.70
2016,09,29,11,40,309.40
2016,09,29,11,41,311.00
2016,09,29,11,42,401.40
2016,09,29,11,43,533.50
2016,09,29,11,44,505.10
2016,09,29,11,45,507.20
2016,09,29,11,46,523.50
2016,09,29,11,47,479.20
2016,09,29,11,48,475.20
2016,09,29,11,49,460.80
2016,09,29,11,50,424.50
2016,09,29,11,51,341.00
2016,09,29,11,52,341.00
2016,09,29,11,53,341.00
2016,09,29,11,54,368.90
2016,09,29,11,55,452.90
2016,09,29,11,56,469.20
2016,09,29,11,57,455.00
2016,09,29,11,58,377.60
2016,09,29,11,59,378.70
2016,09,29,12,00,386.70
2016,09,29,12,01,535.60
2016,09,29,12,02,545.00
2016,09,29,12,03,545.90
2016,09,29,12,04,548.00
2016,09,29,12,05,541.30
2016,09,29,12,06,509.00
2016,09,29,12,07,484.60
2016,09,29,12,08,466.40
2016,09,29,12,09,455.30
2016,09,29,12,10,481.60
2016,09,29,12,11,414.40
2016,09,29,12,12,407.70
2016,09,29,12,13,471.00
2016,09,29,12,14,464.70
2016,09,29,12,15,498.70
2016,09,29,12,16,525.00
2016,09,29,12,17,529.00
2016,09,29,12,18,530.50
2016,09,29,12,19,527.50
2016,09,29,12,20,527.00
2016,09,29,12,21,526.10
2016,09,29,12,22,523.60
2016,09,29,12,23,519.00
2016,09,29,12,24,516.10
2016,09,29,12,25,498.30
2016,09,29,12,26,475.60
2016,09,29,12,27,479.60
2016,09,29,12,28,490.90
2016,09,29,12,29,482.40
2016,09,29,12,30,475.80
2016,09,29,12,31,498.60
2016,09,29,12,32,524.40
2016,09,29,12,33,533.00
2016,09,29,12,34,532.80
2016,09,29,12,35,531.00
2016,09,29,12,36,531.00
2016,09,29,12,37,530.30
2016,09,29,12,38,529.00
2016,09,29,12,39,527.30
2016,09,29,12,40,526.60
2016,09,29,12,41,528.40
2016,09,29,12,42,529.00
2016,09,29,12,43,530.80
2016,09,29,12,44,533.00
2016,09,29,12,45,533.90
2016,09,29,12,46,533.20
2016,09,29,12,47,534.00
2016,09,29,12,48,534.00
2016,09,29,12,49,534.00
2016,09,29,12,50,534.00
2016,09,29,12,51,534.00
2016,09,29,12,52,533.30
2016,09,29,12,53,533.00
2016,09,29,12,54,533.90
2016,09,29,12,55,535.90
2016,09,29,12,56,534.00
2016,09,29,12,57,534.00
2016,09,29,12,58,534.00
2016,09,29,12,59,534.80
2016,09,29,13,00,536.00
2016,09,29,13,01,536.00
2016,09,29,13,02,536.00
2016,09,29,13,03,536.00
2016,09,29,13,04,523.00
2016,09,29,13,05,520.00
2016,09,29,13,06,522.70
2016,09,29,13,07,531.70
2016,09,29,13,08,536.40
2016,09,29,13,09,536.30
2016,09,29,13,10,533.00
2016,09,29,13,11,535.40
2016,09,29,13,12,538.00
2016,09,29,13,13,536.70
2016,09,29,13,14,539.00
2016,09,29,13,15,540.00
2016,09,29,13,16,538.20
2016,09,29,13,17,526.70
2016,09,29,13,18,489.90
2016,09,29,13,19,455.30
2016,09,29,13,20,426.30
2016,09,29,13,21,450.10
2016,09,29,13,22,472.40
2016,09,29,13,23,504.60
2016,09,29,13,24,524.60
2016,09,29,13,25,532.60
2016,09,29,13,26,535.70
2016,09,29,13,27,539.70
2016,09,29,13,28,532.70
2016,09,29,13,29,529.70
2016,09,29,13,30,534.00
2016,09,29,13,31,535.30
2016,09,29,13,32,538.00
2016,09,29,13,33,532.50
2016,09,29,13,34,514.20
2016,09,29,13,35,509.00
2016,09,29,13,36,525.40
2016,09,29,13,37,532.60
2016,09,29,13,38,533.00
2016,09,29,13,39,533.00
2016,09,29,13,40,534.50
2016,09,29,13,41,543.00
2016,09,29,13,42,544.20
2016,09,29,13,43,547.00
2016,09,29,13,44,542.70
2016,09,29,13,45,541.90
2016,09,29,13,46,546.30
2016,09,29,13,47,545.50
2016,09,29,13,48,545.00
2016,09,29,13,49,545.00
2016,09,29,13,50,543.00
2016,09,29,13,51,542.70
2016,09,29,13,52,539.60
2016,09,29,13,53,536.80
2016,09,29,13,54,533.60
2016,09,29,13,55,529.60
2016,09,29,13,56,526.00
2016,09,29,13,57,524.70
2016,09,29,13,58,524.00
2016,09,29,13,59,522.40
2016,09,29,14,00,522.00
2016,09,29,14,01,519.00
2016,09,29,14,02,516.70
2016,09,29,14,03,515.00
2016,09,29,14,04,515.00
2016,09,29,14,05,513.00
2016,09,29,14,06,511.00
2016,09,29,14,07,512.60
2016,09,29,14,08,512.30
2016,09,29,14,09,512.70
2016,09,29,14,10,513.00
2016,09,29,14,11,513.00
2016,09,29,14,12,521.10
2016,09,29,14,13,514.70
2016,09,29,14,14,512.80
2016,09,29,14,15,512.00
2016,09,29,14,16,511.20
2016,09,29,14,17,509.00
2016,09,29,14,18,508.00
2016,09,29,14,19,506.70
2016,09,29,14,20,504.60
2016,09,29,14,21,503.20
2016,09,29,14,22,503.00
2016,09,29,14,23,501.10
2016,09,29,14,24,501.00
2016,09,29,14,25,500.60
2016,09,29,14,26,499.00
2016,09,29,14,27,498.20
2016,09,29,14,28,498.00
2016,09,29,14,29,499.00
2016,09,29,14,30,497.70
2016,09,29,14,31,497.00
2016,09,29,14,32,496.20
2016,09,29,14,33,496.90
2016,09,29,14,34,494.00
2016,09,29,14,35,492.00
2016,09,29,14,36,492.00
2016,09,29,14,37,492.00
2016,09,29,14,38,491.30
2016,09,29,14,39,491.00
2016,09,29,14,40,490.90
2016,09,29,14,41,489.40
2016,09,29,14,42,489.00
2016,09,29,14,43,487.40
2016,09,29,14,44,485.20
2016,09,29,14,45,483.00
2016,09,29,14,46,481.70
2016,09,29,14,47,480.00
2016,09,29,14,48,479.40
2016,09,29,14,49,476.00
2016,09,29,14,50,469.60
2016,09,29,14,51,467.70
2016,09,29,14,52,472.80
2016,09,29,14,53,470.80
2016,09,29,14,54,468.20
2016,09,29,14,55,431.60
2016,09,29,14,56,449.90
2016,09,29,14,57,471.60
2016,09,29,14,58,473.70
2016,09,29,14,59,468.10
2016,09,29,15,00,466.00
2016,09,29,15,01,465.00
2016,09,29,15,02,462.90
2016,09,29,15,03,461.40
2016,09,29,15,04,459.60
2016,09,29,15,05,455.70
2016,09,29,15,06,452.30
2016,09,29,15,07,450.00
2016,09,29,15,08,447.70
2016,09,29,15,09,445.80
2016,09,29,15,10,443.80
2016,09,29,15,11,441.00
2016,09,29,15,12,441.00
2016,09,29,15,13,439.80
2016,09,29,15,14,439.00
2016,09,29,15,15,436.90
2016,09,29,15,16,434.40
2016,09,29,15,17,432.20
2016,09,29,15,18,432.00
2016,09,29,15,19,430.70
2016,09,29,15,20,428.60
2016,09,29,15,21,426.40
2016,09,29,15,22,424.60
2016,09,29,15,23,424.00
2016,09,29,15,24,424.00
2016,09,29,15,25,420.20
2016,09,29,15,26,417.30
2016,09,29,15,27,417.00
2016,09,29,15,28,417.00
2016,09,29,15,29,415.00
2016,09,29,15,30,413.70
2016,09,29,15,31,407.10
2016,09,29,15,32,381.40
2016,09,29,15,33,410.60
2016,09,29,15,34,409.00
2016,09,29,15,35,408.00
2016,09,29,15,36,404.90
2016,09,29,15,37,400.00
2016,09,29,15,38,389.20
2016,09,29,15,39,395.00
2016,09,29,15,40,396.90
2016,09,29,15,41,389.60
2016,09,29,15,42,352.30
2016,09,29,15,43,361.00
2016,09,29,15,44,389.00
2016,09,29,15,45,390.10
2016,09,29,15,46,387.40
2016,09,29,15,47,388.90
2016,09,29,15,48,387.80
2016,09,29,15,49,385.40
2016,09,29,15,50,385.00
2016,09,29,15,51,384.90
2016,09,29,15,52,380.90
2016,09,29,15,53,379.60
2016,09,29,15,54,377.40
2016,09,29,15,55,374.10
2016,09,29,15,56,363.30
2016,09,29,15,57,361.70
2016,09,29,15,58,366.40
2016,09,29,15,59,359.30
2016,09,29,16,00,361.10
2016,09,29,16,01,359.30
2016,09,29,16,02,357.00
2016,09,29,16,03,354.70
2016,09,29,16,04,352.80
2016,09,29,16,05,348.10
2016,09,29,16,06,342.30
2016,09,29,16,07,348.00
2016,09,29,16,08,348.00
2016,09,29,16,09,348.00
2016,09,29,16,10,346.50
2016,09,29,16,11,345.20
2016,09,29,16,12,345.00
2016,09,29,16,13,342.90
2016,09,29,16,14,339.00
2016,09,29,16,15,338.30
2016,09,29,16,16,335.40
2016,09,29,16,17,332.00
2016,09,29,16,18,328.00
2016,09,29,16,19,324.80
2016,09,29,16,20,318.00
2016,09,29,16,21,310.60
2016,09,29,16,22,303.30
2016,09,29,16,23,311.80
2016,09,29,16,24,312.60
2016,09,29,16,25,308.00
2016,09,29,16,26,307.50
2016,09,29,16,27,302.30
2016,09,29,16,28,297.90
2016,09,29,16,29,298.10
2016,09,29,16,30,297.00
2016,09,29,16,31,297.70
2016,09,29,16,32,294.80
2016,09,29,16,33,292.40
2016,09,29,16,34,288.30
2016,09,29,16,35,286.90
2016,09,29,16,36,284.70
2016,09,29,16,37,282.10
2016,09,29,16,38,276.70
2016,09,29,16,39,271.60
2016,09,29,16,40,269.10
2016,09,29,16,41,264.00
2016,09,29,16,42,262.00
2016,09,29,16,43,264.20
2016,09,29,16,44,262.60
2016,09,29,16,45,260.10
2016,09,29,16,46,257.80
2016,09,29,16,47,254.70
2016,09,29,16,48,252.30
2016,09,29,16,49,249.30
2016,09,29,16,50,246.40
2016,09,29,16,51,242.60
2016,09,29,16,52,239.80
2016,09,29,16,53,237.70
2016,09,29,16,54,236.30
2016,09,29,16,55,232.70
2016,09,29,16,56,230.10
2016,09,29,16,57,226.90
2016,09,29,16,58,225.00
2016,09,29,16,59,223.90
2016,09,29,17,00,218.70
2016,09,29,17,01,215.20
2016,09,29,17,02,213.50
2016,09,29,17,03,210.60
2016,09,29,17,04,207.70
2016,09,29,17,05,204.80
2016,09,29,17,06,202.40
2016,09,29,17,07,199.20
2016,09,29,17,08,196.70
2016,09,29,17,09,192.90
2016,09,29,17,10,190.40
2016,09,29,17,11,184.30
2016,09,29,17,12,179.00
2016,09,29,17,13,165.90
2016,09,29,17,14,130.70
2016,09,29,17,15,104.70
2016,09,29,17,16,93.30